Weather observations for the past three days for
Caldwell - Caldwell Industrial Airport
Imperial (Metric)
Date Time (mdt) Wind (mph) Vis. (mi.) Weather Sky Cond. Temperature (ºF) Relative Humidity Wind Chill (°F) Heat Index (°F) Pressure Precipitation (in)
Air Dwpt 6 hour altimeter (in) sea level (mb) 1 hr 3 hr 6 hr
Max. Min.
15 04:56 W 3 10.00 Fair CLR 72 51.1 48% 30.03 1014.0
15 03:56 W 5 10.00 Fair CLR 75.9 48.9 39% 78 30.01 1013.6
15 02:56 W 5 10.00 Fair CLR 75.9 53.1 45% 78 30.01 1013.4
15 01:56 Calm 10.00 Fair CLR 77 55 47% 78 30.01 1013.5
15 00:56 E 3 10.00 Fair CLR 78.1 55 45% 79 30.01 1013.4
14 23:56 Calm 10.00 Fair CLR 79 53.1 98.1 79 41% 79 30 1013.1
14 22:56 NE 6 10.00 A Few Clouds FEW110 84 51.1 32% 82 30.01 1013.3
14 21:56 SW 3 10.00 Fair CLR 84 50 31% 82 30 1013.0
14 20:56 W 9 10.00 Fair CLR 86 53.1 32% 84 29.99 1012.7
14 19:56 W 9 8.00 Fair CLR 88 52 29% 86 29.98 1012.8
14 18:56 W 20 G 25 8.00 Fair CLR 93.9 50 22% 91 29.98 1012.6
14 17:56 W 8 10.00 Fair CLR 98.1 46 99 89.1 17% 94 29.97 1012.1
14 16:56 N 5 10.00 Fair CLR 97 52 22% 94 30 1012.9
14 15:56 SE 3 10.00 Fair CLR 91 55 30% 89 30 1013.4
14 14:56 Calm 10.00 Fair CLR 91.9 51.1 25% 89 30 1013.0
14 13:56 Calm 8.00 Fair CLR 91.9 48 22% 89 30 1012.9
14 12:56 S 5 10.00 Fair CLR 91.9 52 26% 89 30 1012.8
14 11:56 Vrbl 3 10.00 Fair CLR 90 54 90 71.1 29% 88 29.99 1012.7
14 10:56 N 3 10.00 Fair CLR 86 57 37% 85 30 1012.9
14 09:56 Calm 10.00 Fair CLR 84 52 33% 82 29.99 1012.6
14 08:56 N 3 10.00 Fair CLR 80.1 53.1 39% 80 29.98 1012.3
14 07:56 Calm 10.00 Fair CLR 73.9 59 60% 29.97 1011.9
14 06:56 Calm 10.00 Fair CLR 71.1 57.9 63% 29.96 1011.5
14 05:56 N 5 10.00 Fair CLR 72 57 84 72 59% 29.94 1010.8
14 04:56 Calm 10.00 Fair CLR 72 59 64% 29.93 1010.6
14 02:56 SE 3 10.00 Fair CLR 75.9 54 47% 78 29.92 1010.1
14 01:56 NE 7 10.00 Fair CLR 75.9 55 48% 78 29.93 1010.4
14 00:56 SE 3 10.00 Fair CLR 79 55.9 45% 80 29.93 1010.5
13 23:56 E 8 10.00 Fair CLR 78.1 59 104 77 52% 79 29.92 1010.3
13 22:56 Calm 10.00 Fair CLR 82.9 57.9 43% 83 29.91 1010.1
13 21:56 S 5 10.00 Fair CLR 89.1 55.9 33% 87 29.89 1009.3
13 19:56 SE 5 10.00 Fair CLR 99 51.1 20% 96 29.88 1009.0
13 18:56 NE 5 10.00 Fair CLR 100.9 51.1 19% 98 29.88 1009.1
13 17:56 NE 7 10.00 Fair CLR 104 39.9 105.1 89.1 11% 99 29.9 1009.7
13 16:56 E 5 10.00 Fair CLR 104 36 9% 98 29.93 1010.5
13 15:56 E 3 10.00 Fair CLR 100 50 18% 97 29.95 1011.2
13 14:56 N 3 10.00 Fair CLR 100.9 48 17% 97 29.97 1011.8
13 13:56 N 6 10.00 Fair CLR 98.1 48.9 19% 95 29.99 1012.6
13 12:56 N 5 10.00 Fair CLR 93 48 21% 90 30 1013.1
13 11:56 Vrbl 3 10.00 Fair CLR 90 51.1 90 62.1 26% 87 30.01 1013.5
13 10:56 W 3 10.00 Fair CLR 86 50 29% 84 30.02 1013.8
13 09:56 Calm 5.00 Fair with Haze CLR 77 55 47% 78 30.03 1014.1
13 08:56 Calm 9.00 Fair CLR 73 55.9 55% 30.02 1013.9
13 07:56 N 3 10.00 Fair CLR 69.1 54 59% 30.01 1013.5
13 06:56 Calm 9.00 Fair CLR 64 55.9 75% 30 1013.3
13 05:56 Calm 10.00 Fair CLR 64 53.1 82 64 68% 29.99 1012.7
13 04:56 W 7 10.00 Fair CLR 69.1 46.9 45% 29.96 1011.5
13 03:56 W 5 10.00 Fair CLR 71.1 48.9 46% 29.94 1010.8
13 02:56 W 6 10.00 Fair CLR 72 50 46% 29.93 1010.7
13 01:56 W 5 10.00 Fair CLR 75 55 50% 78 29.93 1010.4
13 00:56 W 7 10.00 Fair CLR 75.9 55.9 50% 78 29.92 1010.3
12 23:56 Calm 10.00 Fair CLR 79 59 102.9 79 50% 80 29.92 1010.2
12 22:56 Calm 10.00 Fair CLR 82.9 57 41% 82 29.89 1009.4
12 21:56 W 8 10.00 Fair CLR 86 51.1 30% 84 29.87 1008.7
12 20:56 Calm 10.00 Fair CLR 93 52 25% 90 29.86 1008.2
12 19:56 N 3 10.00 Fair CLR 97 51.1 21% 94 29.86 1008.3
12 18:56 N 7 10.00 Fair CLR 100.9 46.9 16% 97 29.86 1008.4
12 17:56 N 7 9.00 Fair CLR 102.9 44.1 102.9 90 13% 99 29.88 1008.9
12 16:56 N 6 10.00 Fair CLR 102.9 43 13% 98 29.9 1009.7
12 15:56 N 9 10.00 Fair CLR 100.9 46 15% 97 29.92 1010.3
12 14:56 N 8 10.00 Fair CLR 98.1 45 16% 94 29.95 1011.2
12 13:56 Vrbl 3 10.00 Fair CLR 96.1 46.9 19% 92 29.97 1012.0
12 11:56 Calm 10.00 Fair CLR 89.1 48 89.1 63 24% 86 30.01 1013.3
12 10:56 Vrbl 3 10.00 Fair CLR 86 46 25% 83 30.01 1013.4
12 09:56 Calm 10.00 Fair CLR 80.1 48.9 34% 79 30.02 1013.7
12 08:56 Calm 10.00 Fair CLR 75.9 48.9 39% 78 30.01 1013.3
12 07:56 Calm 10.00 Fair CLR 69.1 51.1 53% 29.99 1012.8
12 06:56 Calm 10.00 Fair CLR 64.9 48 54% 29.98 1012.4
12 05:56 SW 3 10.00 Fair CLR 69.1 45 81 66 42% 29.96 1011.8
Date Time (mdt) Wind (mph) Vis. (mi.) Weather Sky Cond. Air Dwpt Max. Min. Relative Humidity Wind Chill (°F) Heat Index (°F) altimeter (in) sea level (mb) 1 hr 3 hr 6 hr
6 hour
Temperature (ºF) Pressure Precipitation (in)